Flag Weather past 2 weeks in Sarnia, Ontario, Canada

Now
50 °F

Partly cloudy.


Feels Like: 45 °F
Forecast: 34 / 55 °F
Wind: 14 mph from Southeast

Location: Sarnia Airport

Current Time: Nov 23, 2014 at 8:48:09 PM

Latest Report: Nov 23, 2014 at 8:00 PM


Visibility: 9 mi

Pressure: 29.57 "Hg

Humidity: 76%

Dew point: 43 °F

Location of SarniaLocation

Historic Weather in Sarnia — Graph

°F

Sarnia temperature yesterday

Maximum temperature yesterday: 43 °F (at 11:02 PM)
Minimum temperature yesterday: 21 °F (at 12:00 AM)
Average temperature yesterday: 33 °F

Past Weeks' High & Low Weather Summary

 TemperatureHumidityPressure
High61 °F (Nov 11, 2:00 PM)100% (Nov 16, 10:00 PM)30.48 "Hg (Nov 16, 10:00 PM)
Low10 °F (Nov 21, 7:00 AM)50% (Nov 21, 1:00 PM)29.60 "Hg (Nov 17, 12:59 PM)
Average31 °F74%30.00 "Hg
* Reported Nov 8 7:00 PM — Nov 23 7:00 PM, Sarnia, Weather by CustomWeather, © 2014

Note: Actual official high and low records may vary slightly from our data, if they occured in-between our weather recording intervals... More about our weather records

Advertising

Sarnia weather history for previous 24 hours

 ConditionsComfort  
Time TempWeatherWind HumidityBarometerVisibility
7:00 PM
Nov 23
48 °FMostly cloudy.15 mph76%29.63 "Hg9 mi
6:00 PM48 °FMostly cloudy.15 mph82%29.67 "Hg9 mi
5:00 PM48 °FMostly cloudy.13 mph82%29.72 "Hg9 mi
4:00 PM50 °FPartly sunny.10 mph76%29.75 "Hg9 mi
3:00 PM48 °FPassing clouds.15 mph87%29.78 "Hg9 mi
2:00 PM48 °FBroken clouds.14 mph87%29.82 "Hg9 mi
1:00 PM48 °FLight rain. Mostly cloudy.10 mph87%29.86 "Hg9 mi
12:56 PM48 °FLight rain. More clouds than sun.10 mph87%29.86 "Hg9 mi
12:00 PM46 °FCloudy.15 mph93%29.90 "Hg9 mi
11:59 AM46 °FCloudy.14 mph93%29.90 "Hg9 mi
11:00 AM45 °FLight rain. Fog.12 mph93%29.95 "Hg3 mi
10:48 AM45 °FLight rain. Fog.13 mph93%29.96 "Hg5 mi
10:03 AM45 °FLight rain. Mostly cloudy.15 mph93%29.95 "Hg9 mi
9:01 AM43 °FMostly cloudy.12 mph93%29.95 "Hg7 mi
8:00 AM45 °FFog.12 mph87%29.94 "Hg6 mi
7:00 AM43 °FOvercast.10 mph87%29.94 "Hg9 mi
6:00 AM41 °FPassing clouds.7 mph87%29.94 "Hg9 mi
5:00 AM41 °FClear.8 mph87%29.93 "Hg9 mi
4:00 AM41 °FClear.7 mph87%29.93 "Hg9 mi
3:00 AM41 °FPartly cloudy.7 mph93%29.95 "Hg8 mi
2:00 AM41 °FPassing clouds.8 mph87%29.94 "Hg7 mi
1:00 AM43 °FOvercast.9 mph87%29.95 "Hg7 mi
12:00 AM41 °FFog.9 mph93%29.96 "Hg6 mi
11:02 PM
Nov 22
43 °FFog.7 mph93%29.95 "Hg5 mi
10:00 PM41 °FFog.7 mph93%29.94 "Hg5 mi
9:00 PM41 °FFog.9 mph93%29.94 "Hg4 mi
8:47 PM41 °FFog.10 mph93%29.94 "Hg4 mi
8:00 PM39 °FFog.9 mph100%29.95 "Hg3 mi
Weather by CustomWeather, © 2014

See weather overviewHow to use our weather pages